Regional Weather Roundup
Issued by NWS

Home | Current Version | Previous Version | Text Only | Print | Product List | Glossary Off
Versions: 1 2 3 4 5 6 7 8 9 10 11 12 13 14 15 16 17 18 19 20 21 22 23 24 25 26 27 28 29 30 31 32 33 34 35 36 37 38 39 40 41 42 43 44 45 46 47 48 49 50

013
ASUS44 KMEG 092200
RWRTN
TENNESSEE HOURLY STATE WEATHER ROUNDUP
NATIONAL WEATHER SERVICE MEMPHIS TN
400 PM CST TUE FEB 09 2016

TNZ002-004-019-021-049-052-054-088>092-092300-
WEST TENNESSEE

CITY           SKY/WX    TMP DP  RH WIND       PRES   REMARKS
MEMPHIS INTL   MOSUNNY   37  13  37 N16G24    30.07R WCI  28
NWS MEMPHIS      N/A     35 N/A N/A MISG        N/A
JACKSON        CLOUDY    29  17  61 NW14G26   30.07R WCI  18
DYERSBURG      MOSUNNY   28  16  59 NW10G16   30.10R WCI  19
UNION CITY     CLOUDY    25  16  68 N7        30.06R WCI  17
PARIS          CLOUDY    21  16  79 NW8       30.04R WCI  12
$$

TNZ008-025-027-028-033-062-065-066-092300-
NORTH MIDDLE TENNESSEE

CITY           SKY/WX    TMP DP  RH WIND       PRES   REMARKS
NASHVILLE      LGT SNOW  26  17  68 N10       30.00R WCI  16
CLARKSVILLE    LGT SNOW  23  19  85 NW15      30.02R VSB 3/4 WCI  10
COOKEVILLE     CLOUDY    25  21  86 NW9       29.91R WCI  15
CROSSVILLE     LGT SNOW  23  15  71 NW13      29.84R WCI  11
$$

TNZ061-075-076-078-094-096-097-092300-
SOUTH MIDDLE TENNESSEE

CITY           SKY/WX    TMP DP  RH WIND       PRES   REMARKS
TULLAHOMA      CLOUDY    23  21  93 NW10      29.95R WCI  12
WINCHESTER     CLOUDY    25  18  74 W13       29.96R WCI  13
MCMINNVILLE    PTSUNNY   23  18  80 W10       29.94R WCI  12
COLUMBIA       CLOUDY    27  25  93 VRB6      29.99R WCI  20
SHELBYVILLE    CLOUDY    27  21  80 W10       29.98R WCI  17
$$

TNZ017-018-042-046-047-092300-
NORTHEAST TENNESSEE

CITY           SKY/WX    TMP DP  RH WIND       PRES   REMARKS
TRI CITIES     CLOUDY    24  14  65 W16       29.80R WCI  11
$$

TNZ012-013-036-069-073-074-092300-
CENTRAL EAST TENNESSEE

CITY           SKY/WX    TMP DP  RH WIND       PRES   REMARKS
KNOXVILLE      CLOUDY    27  19  72 W3        29.87R
OAK RIDGE      CLOUDY    30  14  51 W7        29.89R WCI  23
GATLINBURG     CLOUDY    27  16  63 NW9       29.86R WCI  17
$$

TNZ083-085-099-092300-
SOUTHEAST TENNESSEE

CITY           SKY/WX    TMP DP  RH WIND       PRES   REMARKS
CHATTANOOGA    CLOUDY    30  17  58 W14G25    29.94R WCI  19
$$

SKY/WX REPORTED AS FAIR MEANS FEW OR NO CLOUDS BELOW
12 THOUSAND FEET.





USA.gov is the U.S. government's official web portal to all federal, state and local government web resources and services.